Flag for Canada Weather past 2 weeks in Yarmouth County, Nova Scotia, Canada

Now
28 °F

Snow. Ice fog.


Feels Like: 15 °F
Forecast: 21 / 32 °F
Wind: 20 mph from Northeast

Location: Yarmouth

Current Time: Mar 28, 2015 at 9:10:41 PM

Latest Report: Mar 28, 2015 at 8:00 PM


Visibility: 0 mi

Pressure: 29.67 "Hg

Humidity: 100%

Dew point: 28 °F

Location of Yarmouth CountyLocation

Historic Weather in Yarmouth County — Graph

°F

Yarmouth County temperature yesterday

Maximum temperature yesterday: 43 °F (at 12:00 AM)
Minimum temperature yesterday: 36 °F (at 10:00 PM)
Average temperature yesterday: 39 °F

Past Weeks' High & Low Weather Summary

 TemperatureHumidityPressure
High45 °F (Mar 26, 11:00 PM)100% (Mar 14, 7:01 PM)30.41 "Hg (Mar 14, 7:01 PM)
Low16 °F (Mar 17, 6:00 AM)43% (Mar 14, 1:00 PM)29.22 "Hg (Mar 18, 1:00 AM)
Average28 °F82%29.85 "Hg
* Reported Mar 13 7:00 PM — Mar 28 7:00 PM, Yarmouth County, Weather by CustomWeather, © 2015

Note: Actual official high and low records may vary slightly from our data, if they occured in-between our weather recording intervals... More about our weather records

Advertising

Yarmouth County weather history for previous 24 hours

 ConditionsComfort  
Time TempWeatherWind HumidityBarometerVisibility
7:00 PM
Sat, Mar 28
30 °FLight snow. Low clouds.20 mph93%29.65 "Hg1 mi
6:00 PM32 °FLight snow. Low clouds.18 mph93%29.64 "Hg1 mi
5:00 PM32 °FLight snow. Low clouds.14 mph100%29.64 "Hg1 mi
4:00 PM34 °FSnow flurries. Low clouds.16 mph93%29.65 "Hg3 mi
3:00 PM36 °FSnow flurries. Low clouds.16 mph93%29.62 "Hg5 mi
2:45 PM36 °FSnow flurries. Low clouds.13 mph93%29.64 "Hg5 mi
2:00 PM36 °FLight snow. Low clouds.15 mph93%29.66 "Hg3 mi
1:00 PM36 °FLight snow. Low clouds.12 mph93%29.70 "Hg3 mi
12:00 PM34 °FLight snow. Low clouds.12 mph93%29.70 "Hg2 mi
11:00 AM32 °FLight snow. Mostly cloudy.10 mph100%29.72 "Hg2 mi
10:00 AM34 °FLight snow. Overcast.10 mph93%29.74 "Hg3 mi
9:00 AM36 °FOvercast.12 mph87%29.75 "Hg10 mi
8:51 AM36 °FOvercast.10 mph93%29.75 "Hg10 mi
8:00 AM34 °FLight rain. Mostly cloudy.9 mph93%29.74 "Hg9 mi
7:00 AM36 °FLight rain. Overcast.9 mph87%29.75 "Hg12 mi
6:50 AM36 °FLight rain. Overcast.8 mph87%29.74 "Hg12 mi
6:00 AM36 °FOvercast.8 mph87%29.75 "Hg15 mi
5:00 AM36 °FOvercast.7 mph93%29.75 "Hg15 mi
4:00 AM36 °FOvercast.8 mph93%29.73 "Hg15 mi
3:00 AM36 °FOvercast.8 mph93%29.72 "Hg12 mi
2:00 AM36 °FOvercast.8 mph100%29.73 "Hg12 mi
1:00 AM36 °FOvercast.8 mph100%29.73 "Hg12 mi
12:00 AM36 °FOvercast.8 mph100%29.72 "Hg12 mi
11:00 PM
Fri, Mar 27
36 °FOvercast.7 mph100%29.71 "Hg12 mi
10:00 PM36 °FOvercast.7 mph100%29.70 "Hg12 mi
9:00 PM37 °FOvercast.7 mph93%29.69 "Hg15 mi
Weather by CustomWeather, © 2015

See weather overviewHow to use our weather pages